Home > Weather > Jalandhar > Past weeks

Flag for India Weather for the Past 2 Weeks in Jalandhar, Punjab, India

Now
73 °F

Passing clouds.


Feels Like: 77 °F
Forecast: 76 / 98 °F
Wind: No wind

Location: Amritsar Airport

Current Time: May 5, 2016 at 1:08:42 AM

Latest Report: May 5, 2016 at 12:00 AM


Visibility: 2 mi

Pressure: 29.71 "Hg

Humidity: 53%

Dew Point: 55 °F

Location of JalandharLocation

Historic Weather in Jalandhar — Graph

°F

Jalandhar Temperature Yesterday

Maximum temperature yesterday: 90 °F (at 3:30 PM)
Minimum temperature yesterday: 75 °F (at 11:30 PM)
Average temperature yesterday: 82 °F

High & Low Weather Summary for the Past Weeks

 TemperatureHumidityPressure
High109 °F (May 2, 2:00 PM)78% (Apr 20, 6:30 AM)29.86 "Hg (Apr 20, 6:30 AM)
Low61 °F (Apr 23, 5:30 AM)5% (May 2, 2:00 PM)29.56 "Hg (May 1, 4:30 PM)
Average85 °F30%29.70 "Hg
* Reported Apr 19 11:30 PM — May 4 11:30 PM, Jalandhar, Weather by CustomWeather, © 2016

Note: Actual official high and low records may vary slightly from our data, if they occured in-between our weather recording intervals... More about our weather records

Advertising

Jalandhar Weather History for the Previous 24 Hours

Scroll right to see more
 ConditionsComfort  
Time TempWeatherWind HumidityBarometerVisibility
11:30 PM
Wed, May 4
75 °FPassing clouds.No wind50%29.74 "Hg2 mi
11:00 PM77 °FPassing clouds.5 mph47%29.74 "Hg2 mi
10:00 PM79 °FPassing clouds.2 mph45%29.74 "Hg2 mi
9:30 PM79 °FPassing clouds.5 mph45%29.74 "Hg2 mi
9:00 PM81 °FPassing clouds.3 mph42%29.71 "Hg2 mi
8:30 PM81 °FPassing clouds.2 mph42%29.68 "Hg2 mi
8:00 PM81 °FPassing clouds.2 mph42%29.68 "Hg3 mi
7:30 PM82 °FScattered clouds.6 mph40%29.68 "Hg3 mi
6:35 PM86 °FScattered clouds.12 mph33%29.65 "Hg3 mi
6:00 PM86 °FScattered clouds.13 mph35%29.65 "Hg2 mi
5:30 PM88 °FScattered clouds.13 mph31%29.62 "Hg2 mi
5:00 PM90 °FBroken clouds.15 mph27%29.62 "Hg2 mi
4:30 PM90 °FBroken clouds.15 mph29%29.62 "Hg2 mi
4:00 PM90 °FBroken clouds.16 mph29%29.65 "Hg2 mi
3:30 PM90 °FBroken clouds.20 mph33%29.65 "Hg2 mi
9:30 AM88 °FBroken clouds.5 mph33%29.74 "Hg2 mi
9:00 AM86 °FBroken clouds.9 mph35%29.71 "Hg2 mi
8:30 AM82 °FBroken clouds.7 mph40%29.71 "Hg2 mi
8:00 AM81 °FBroken clouds.7 mph45%29.71 "Hg2 mi
7:30 AM79 °FBroken clouds.7 mph45%29.71 "Hg2 mi
7:00 AM79 °FBroken clouds.8 mph45%29.74 "Hg2 mi
6:30 AM77 °FBroken clouds.6 mph47%29.71 "Hg2 mi
6:00 AM81 °FPartly cloudy.7 mph39%29.68 "Hg1 mi
5:30 AM79 °FPartly cloudy.13 mph45%29.68 "Hg1 mi
5:00 AM81 °FPartly cloudy.16 mph39%29.68 "Hg1 mi
4:30 AM77 °FPartly cloudy.14 mph47%29.68 "Hg1 mi
4:00 AM77 °FPartly cloudy.12 mph47%29.68 "Hg1 mi
3:30 AM81 °FPartly cloudy.14 mph42%29.68 "Hg1 mi
3:00 AM84 °FPartly cloudy.5 mph35%29.62 "Hg1 mi
2:30 AM82 °FPartly cloudy.6 mph40%29.62 "Hg1 mi
2:00 AM81 °FPartly cloudy.5 mph45%29.65 "Hg1 mi
1:30 AM82 °FPartly cloudy.No wind42%29.65 "Hg1 mi
1:00 AM79 °FPartly cloudy.2 mph51%29.68 "Hg1 mi
Weather by CustomWeather, © 2016

See weather overviewHow to use our weather pages